KX4KY-13 Weather Reports


time (UTC)temp
C
wind
direction
speed
KPH
gust
KPH
rain 1hr
cm
rain 24hr
cm
rain mn
cm
humidity
%
barometer
mb
20260509000017 13 4 1.6 3.2 0.00 0.00 0.00 75 1015.2
20260508235037 13 29 1.6 3.2 0.00 0.00 0.00 74 1015.0
20260508234017 13 38 1.6 8.0 0.00 0.00 0.00 73 1015.0
20260508233017 13 31 1.6 11.3 0.00 0.00 0.00 73 1015.3
20260508232017 13 24 1.6 9.7 0.00 0.00 0.00 75 1015.2
20260508231017 14 26 1.6 9.7 0.00 0.00 0.00 74 1015.2
20260508230017 14 40 0.0 6.4 0.00 0.00 0.00 72 1015.1
20260508225018 14 40 0.0 8.0 0.00 0.00 0.00 71 1015.0
20260508224017 15 22 1.6 4.8 0.00 0.00 0.00 71 1015.3
20260508223019 15 30 0.0 3.2 0.00 0.00 0.00 70 1015.3
20260508222039 15 26 1.6 4.8 0.00 0.00 0.00 68 1015.2
20260508221018 15 81 0.0 3.2 0.00 0.00 0.00 68 1015.0
20260508220018 15 84 1.6 6.4 0.00 0.00 0.00 67 1015.0
20260508215020 15 56 0.0 3.2 0.00 0.00 0.00 68 1015.0
20260508214020 16 15 1.6 4.8 0.00 0.00 0.00 65 1015.2
20260508213017 16 42 1.6 4.8 0.00 0.00 0.00 65 1015.1
20260508212016 16 70 1.6 4.8 0.00 0.00 0.00 64 1015.0
20260508211016 16 73 1.6 4.8 0.00 0.00 0.00 63 1015.0
20260508210016 16 51 1.6 4.8 0.00 0.00 0.00 62 1015.0
20260508205017 16 134 1.6 6.4 0.00 0.00 0.00 62 1015.0
20260508204018 16 39 1.6 4.8 0.00 0.00 0.00 61 1014.9
20260508203017 16 88 1.6 6.4 0.00 0.00 0.00 62 1015.3
20260508202017 17 43 1.6 6.4 0.00 0.00 0.00 59 1015.4
20260508201016 17 55 1.6 8.0 0.00 0.00 0.00 59 1015.1
20260508200019 16 133 1.6 8.0 0.00 0.00 0.00 59 1015.0
20260508195017 16 118 1.6 6.4 0.00 0.00 0.00 60 1015.4
20260508194018 15 119 1.6 6.4 0.00 0.00 0.00 60 1015.7
20260508193037 15 120 3.2 6.4 0.00 0.00 0.00 62 1015.9
20260508192038 15 156 1.6 3.2 0.00 0.00 0.00 61 1016.1
20260508191017 15 129 1.6 4.8 0.00 0.00 0.00 62 1016.4
20260508190039 16 135 1.6 8.0 0.00 0.00 0.00 59 1016.3
20260508185018 16 133 1.6 6.4 0.00 0.00 0.00 60 1016.6
20260508184022 16 130 3.2 6.4 0.00 0.00 0.00 60 1016.2
20260508183019 16 131 1.6 4.8 0.00 0.00 0.00 61 1016.8
20260508182039 16 63 1.6 4.8 0.00 0.00 0.00 60 1016.6
20260508181018 16 45 1.6 4.8 0.00 0.00 0.00 59 1017.2
20260508180016 17 132 3.2 9.7 0.00 0.00 0.00 58 1016.7
20260508175016 17 50 1.6 8.0 0.00 0.00 0.00 56 1016.7
20260508174016 16 106 3.2 11.3 0.00 0.00 0.00 59 1016.9
20260508173016 16 123 3.2 8.0 0.00 0.00 0.00 57 1016.9
20260508172016 16 126 3.2 6.4 0.00 0.00 0.00 58 1016.7
20260508171016 16 121 3.2 8.0 0.00 0.00 0.00 60 1017.8
20260508170016 16 134 3.2 6.4 0.00 0.00 0.00 59 1017.2
20260508165037 16 91 1.6 6.4 0.00 0.00 0.00 60 1017.4
20260508164016 16 142 1.6 8.0 0.00 0.00 0.00 60 1018.0
20260508163058 16 138 4.8 11.3 0.00 0.00 0.00 60 1017.6
20260508162017 14 139 3.2 9.7 0.00 0.00 0.00 63 1017.4
20260508161058 13 117 3.2 9.7 0.00 0.00 0.00 65 1017.9
20260508160017 14 27 1.6 4.8 0.00 0.00 0.00 65 1018.6
20260508155019 14 133 3.2 9.7 0.00 0.00 0.00 64 1018.3
20260508154017 14 139 3.2 6.4 0.00 0.00 0.00 64 1018.7
20260508153039 15 132 1.6 11.3 0.00 0.00 0.00 62 1018.2
20260508152018 15 98 1.6 8.0 0.00 0.00 0.00 64 1018.1
20260508151018 15 103 3.2 8.0 0.00 0.00 0.00 62 1017.9
20260508150018 14 1 1.6 6.4 0.00 0.00 0.00 65 1018.4
20260508145019 15 138 1.6 11.3 0.00 0.00 0.00 62 1017.9
20260508144018 13 117 4.8 12.9 0.00 0.00 0.00 64 1017.8
20260508143018 15 153 1.6 8.0 0.00 0.00 0.00 61 1017.8
20260508142015 14 137 1.6 8.0 0.00 0.00 0.00 63 1017.8
20260508141019 14 125 4.8 14.5 0.00 0.00 0.00 64 1017.9
20260508140019 14 129 3.2 6.4 0.00 0.00 0.00 63 1018.0
20260508135016 14 94 3.2 9.7 0.00 0.00 0.00 66 1018.0
20260508134017 14 128 3.2 8.0 0.00 0.00 0.00 63 1017.9
20260508133016 13 103 1.6 6.4 0.00 0.00 0.00 64 1018.3
20260508132016 13 151 3.2 8.0 0.00 0.05 0.00 63 1017.8
20260508131017 13 128 3.2 8.0 0.00 0.08 0.00 65 1017.7
20260508130057 13 124 3.2 9.7 0.00 0.08 0.00 65 1017.6
20260508125016 13 132 3.2 6.4 0.00 0.08 0.00 65 1017.5
20260508124018 13 147 1.6 6.4 0.00 0.10 0.00 64 1017.3
20260508123039 13 138 0.0 6.4 0.00 0.10 0.00 65 1017.1
20260508122018 13 104 1.6 4.8 0.00 0.10 0.00 67 1017.2
20260508121018 13 89 1.6 4.8 0.00 0.10 0.00 67 1017.2
20260508120018 12 53 1.6 6.4 0.00 0.10 0.00 68 1017.1
20260508115018 11 264 1.6 4.8 0.00 0.10 0.00 73 1016.9
20260508114018 10 19 1.6 4.8 0.00 0.10 0.00 78 1016.8
20260508113038 9 11 1.6 3.2 0.00 0.10 0.00 81 1016.9
20260508112018 8 24 1.6 3.2 0.00 0.10 0.00 83 1016.7
20260508111018 8 32 1.6 3.2 0.00 0.13 0.00 84 1016.6
20260508110019 8 15 1.6 3.2 0.00 0.13 0.00 83 1016.4
20260508105019 8 357 1.6 3.2 0.00 0.23 0.00 84 1016.4
20260508104019 7 15 1.6 3.2 0.00 0.23 0.00 85 1016.3
20260508103039 7 12 1.6 3.2 0.00 0.23 0.00 86 1016.2
20260508102019 8 19 1.6 3.2 0.00 0.23 0.00 85 1016.1
20260508101019 8 12 3.2 6.4 0.00 0.23 0.00 86 1015.9
20260508100019 8 8 3.2 4.8 0.00 0.25 0.00 86 1015.7
20260508095019 8 12 1.6 4.8 0.00 0.28 0.00 86 1015.6
20260508094020 8 15 1.6 3.2 0.00 0.33 0.00 86 1015.6
20260508093040 8 9 1.6 4.8 0.00 0.33 0.00 86 1015.5
20260508092020 8 23 0.0 1.6 0.00 0.33 0.00 88 1015.6
20260508091020 8 48 1.6 4.8 0.00 0.33 0.00 87 1015.6
20260508090020 8 42 1.6 3.2 0.00 0.33 0.00 88 1015.5
20260508085021 8 35 1.6 3.2 0.00 0.33 0.00 87 1015.4
20260508084022 8 28 1.6 6.4 0.00 0.33 0.00 87 1015.4
20260508083020 8 37 1.6 3.2 0.00 0.33 0.00 87 1015.2
20260508082020 8 15 1.6 3.2 0.00 0.33 0.00 87 1015.2
20260508081021 8 23 1.6 4.8 0.00 0.33 0.00 88 1015.1
20260508080021 8 91 1.6 4.8 0.00 0.33 0.00 89 1015.0
20260508075021 8 21 1.6 3.2 0.00 0.33 0.00 89 1015.1
20260508074021 8 15 1.6 3.2 0.00 0.33 0.00 89 1015.1
20260508073022 8 46 1.6 4.8 0.00 0.33 0.00 88 1015.0
20260508072022 8 37 1.6 6.4 0.00 0.33 0.00 89 1014.9
20260508071021 8 73 1.6 6.4 0.00 0.36 0.00 89 1014.9
20260508070021 8 12 1.6 3.2 0.00 0.36 0.00 88 1015.0
20260508065043 9 56 0.0 4.8 0.00 0.36 0.00 88 1014.7
20260508064022 9 36 1.6 3.2 0.00 0.36 0.00 88 1014.7
20260508063022 9 84 1.6 6.4 0.00 0.36 0.00 88 1014.7
20260508062022 9 28 1.6 6.4 0.00 0.41 0.00 87 1014.7
20260508061022 9 14 1.6 3.2 0.00 0.41 0.00 87 1014.7
20260508060023 9 18 1.6 4.8 0.00 0.43 0.00 86 1014.8
20260508055119 9 75 1.6 6.4 0.00 0.43 0.00 84 1014.9
20260508054043 9 36 1.6 3.2 0.00 0.48 0.00 84 1014.8
20260508053023 9 325 1.6 6.4 0.00 0.51 0.00 84 1014.9
20260508052023 9 152 1.6 6.4 0.00 0.51 0.00 83 1014.9
20260508051043 10 22 1.6 4.8 0.00 0.53 0.00 82 1014.9
20260508050020 10 39 1.6 9.7 0.00 0.56 0.00 83 1014.7
20260508045023 10 33 1.6 6.4 0.00 0.56 0.00 83 1014.7
20260508044020 10 45 1.6 8.0 0.00 0.56 0.00 83 1014.7
20260508043026 10 28 3.2 6.4 0.00 0.56 0.00 84 1014.6
20260508042023 10 57 1.6 4.8 0.00 0.56 0.00 83 1014.6
20260508041104 10 121 3.2 6.4 0.00 0.56 0.00 82 1014.5
20260508040024 10 87 3.2 8.0 0.00 0.56 0.00 83 1014.4
20260508035024 10 60 3.2 8.0 0.00 0.56 0.56 84 1014.5
20260508034044 10 80 3.2 4.8 0.00 0.56 0.56 83 1014.6
20260508033024 10 48 3.2 8.0 0.00 0.56 0.56 82 1014.6
20260508032045 10 43 3.2 6.4 0.00 0.56 0.56 82 1014.6
20260508031025 10 35 3.2 6.4 0.00 0.56 0.56 82 1014.4
20260508030024 10 53 3.2 8.0 0.00 0.56 0.56 81 1014.2
20260508025023 10 68 3.2 9.7 0.00 0.56 0.56 82 1014.4
20260508024021 10 52 3.2 12.9 0.00 0.56 0.56 81 1014.2
20260508023025 10 80 3.2 8.0 0.00 0.56 0.56 78 1014.4
20260508022044 10 57 1.6 3.2 0.00 0.56 0.56 79 1014.5
20260508021025 10 11 1.6 4.8 0.00 0.58 0.56 80 1014.2
20260508020040 10 50 3.2 6.4 0.00 0.58 0.56 79 1014.1
20260508015045 10 28 1.6 4.8 0.00 0.61 0.56 80 1014.0
20260508014036 10 33 1.6 6.4 0.00 0.61 0.56 80 1013.7
20260508013017 10 11 3.2 8.0 0.00 0.61 0.56 79 1013.6
20260508012017 10 18 3.2 6.4 0.00 0.69 0.56 81 1013.4
20260508011017 10 25 3.2 9.7 0.00 0.71 0.56 82 1013.3
20260508010017 11 30 3.2 9.7 0.00 0.76 0.56 81 1013.2
20260508005017 11 17 3.2 6.4 0.00 0.79 0.56 82 1013.1
20260508004017 11 15 3.2 6.4 0.00 0.79 0.56 83 1012.9
20260508003019 11 13 3.2 6.4 0.00 0.81 0.56 83 1012.9
20260508002018 11 19 3.2 4.8 0.00 0.81 0.56 83 1012.8
20260508001017 11 14 1.6 6.4 0.00 0.84 0.56 82 1012.5